Location: San Antonio
(29.4240°N, 98.4930°W)
Time: 17:56:58
(UTC-05:00)

ISS - All Passes

Search period start: 19 April 2018 00:00
Search period end: 29 April 2018 00:00
Orbit: 403 x 406 km, 51.6° (Epoch: 20 April)

Date Brightness Start Highest point End Pass type
(mag) Time Alt. Az. Time Alt. Az. Time Alt. Az.
19 Apr - 10:01:08 10° SW 10:04:22 73° SE 10:07:37 10° NE daylight
19 Apr - 18:10:04 10° NNW 18:13:16 50° NE 18:16:28 10° ESE daylight
20 Apr - 09:09:23 10° S 09:12:14 29° SE 09:15:07 10° ENE daylight
20 Apr - 10:46:26 10° W 10:48:43 17° NW 10:51:01 10° N daylight
20 Apr - 17:18:15 10° NNW 17:20:58 23° NE 17:23:41 10° E daylight
20 Apr - 18:54:50 10° WNW 18:57:18 20° SW 18:59:47 10° S daylight
21 Apr - 08:18:34 10° SSE 08:20:10 13° SE 08:21:45 10° E daylight
21 Apr - 09:53:22 10° WSW 09:56:22 34° NW 09:59:23 10° NNE daylight
21 Apr - 16:26:57 10° N 16:28:33 13° NE 16:30:08 10° ENE daylight
21 Apr - 18:02:03 10° NW 18:05:12 46° SW 18:08:21 10° SSE daylight
22 Apr - 09:00:50 10° SW 09:04:05 81° NW 09:07:21 10° NE daylight
22 Apr - 17:09:43 10° NW 17:13:00 69° NE 17:16:14 10° SE daylight
23 Apr - 08:08:50 10° SSW 08:11:53 39° SE 08:14:58 10° ENE daylight
23 Apr - 09:46:38 10° WNW 09:48:29 14° NW 09:50:20 10° N daylight
23 Apr - 16:17:44 10° NNW 16:20:41 30° NE 16:23:37 10° ESE daylight
23 Apr - 17:54:57 10° W 17:56:56 15° SW 17:58:54 10° SSW daylight
24 Apr - 07:17:32 10° S 07:19:45 17° SE 07:21:59 10° E daylight
24 Apr - 08:53:14 10° W 08:56:03 26° NW 08:58:52 10° NNE daylight
24 Apr - 15:26:10 10° N 15:28:16 16° NE 15:30:22 10° ENE daylight
24 Apr - 17:01:48 10° WNW 17:04:48 34° SW 17:07:47 10° SSE daylight
25 Apr - 08:00:30 10° SW 08:03:42 58° NW 08:06:56 10° NE daylight
25 Apr - 16:09:19 10° NW 16:12:35 86° SW 16:15:51 10° SE daylight
26 Apr - 07:08:15 10° SSW 07:11:26 54° SE 07:14:38 10° NE daylight
26 Apr - 08:46:56 10° WNW 08:48:09 12° NW 08:49:21 10° NNW daylight
26 Apr - 15:17:11 10° NNW 15:20:17 39° NE 15:23:22 10° ESE daylight
26 Apr - 16:55:19 10° WSW 16:56:25 11° SW 16:57:33 10° SW daylight
27 Apr - 06:16:38 10° S 06:19:15 23° SE 06:21:53 10° ENE visible
27 Apr - 07:53:05 10° W 07:55:38 21° NW 07:58:12 10° NNE daylight
27 Apr - 14:25:23 10° N 14:27:52 19° NE 14:30:19 10° E daylight
27 Apr - 16:01:32 10° WNW 16:04:17 25° SW 16:07:02 10° S daylight
28 Apr - 05:26:48 10° SE 05:27:06 10° SE 05:27:25 10° ESE visible
28 Apr - 07:00:06 10° WSW 07:03:14 43° NW 07:06:21 10° NNE daylight
28 Apr - 13:34:27 10° NNE 13:35:19 11° NE 13:36:12 10° NE daylight
28 Apr - 15:08:50 10° NW 15:12:04 62° SW 15:15:17 10° SSE daylight
